Location: East Arcadia
(34.1056°N, 118.0176°W)
Time: 00:55:55
(UTC+00:00)

Cosmos 2263 Rocket - Pass Details

Date: 01 April 2023
Orbit: 822 x 849 km, 71.0° (Epoch: 08 June)

Event Time Altitude Azimuth Distance (km) Brightness Sun altitude
Rises 13:07:37 0° 347° (NNW) 3,379 5.3 -7.4°
Reaches altitude 10° 13:10:12 10° 354° (N) 2,447 4.7 -6.8°
Maximum altitude 13:15:29 41° 64° (ENE) 1,197 3.7 -5.8°
Drops below altitude 10° 13:20:46 10° 134° (SE) 2,452 5.2 -4.7°
Sets 13:23:21 0° 142° (SE) 3,387 5.8 -4.2°
